Location: Unspecified
(0.0000°N, 0.0000°E)
Time: 18:07:38
(UTC+02:00)

Iridium 15 - Visible Passes

Search period start: 19 October 2017 00:00
Search period end: 29 October 2017 00:00
Orbit: 762 x 764 km, 86.4° (Epoch: 19 October)

Date Brightness Start Highest point End Pass type
(mag) Time Alt. Az. Time Alt. Az. Time Alt. Az.
21 Oct 8.1 21:49:24 10° S 21:50:33 17° S 21:50:33 17° S visible
22 Oct 7.7 21:12:09 10° SSE 21:13:44 19° SE 21:13:44 19° SE visible
23 Oct 7.9 20:36:33 10° ESE 20:36:59 11° ESE 20:36:59 11° ESE visible
23 Oct 8.0 22:14:40 10° SSW 22:17:13 24° SW 22:17:13 24° SW visible
24 Oct 6.2 21:36:17 10° S 21:40:34 62° SSW 21:40:34 62° SSW visible
25 Oct 6.4 20:58:56 10° SSE 21:03:42 39° E 21:04:02 38° E visible
25 Oct 8.9 22:42:37 10° WSW 22:43:47 11° W 22:44:17 11° W visible
26 Oct 7.5 20:23:00 10° SE 20:25:57 15° E 20:27:36 13° ENE visible
26 Oct 7.8 22:01:42 10° SSW 22:06:03 28° W 22:07:52 23° WNW visible
27 Oct 6.1 21:23:11 10° S 21:28:19 73° W 21:31:37 22° N visible
28 Oct 6.3 20:45:43 10° SSE 20:50:34 43° E 20:55:24 10° NNE visible
